Lexington Weather

Lexington, Massachusetts, USA

45°F
4/22/2024 9:21am 
  • Lexington Conditions: Clear
  • Temperature: 44.8°F / 7.1°CWarmer 3.3°F than last hour.
  • Dew Point: 26.2°FDecreased 2.0°Fsince last hour.
  • Relative Humidity: 48%Decreased 11.0% since last hour.
  • Wind: Calm, 10-min avg: Calm, gust: 4 mph
  • Barometer: 29.96 in Steady
  • Visibility: 10 miles
  • Rain Today: 0.00 in
  •   

Regional Weather Roundup
for Boston, MA

        
000
ASUS41 KBOX 151810
RWRBOX

REGIONAL WEATHER ROUNDUP
NATIONAL WEATHER SERVICE BOSTON/NORTON MA
200 PM EDT MON APR 15 2024

NOTE:  "FAIR" INDICATES FEW OR NO CLOUDS BELOW 12,000 FEET WITH NO 
SIGNIFICANT WEATHER AND/OR OBSTRUCTIONS TO VISIBILITY.

MAZALL-151900-
EASTERN MASSACHUSETTS
  
CITY           SKY/WX    TMP DP  RH WIND       PRES   REMARKS
BOSTON         PTSUNNY   70  44  39 W14G22    29.76S                  
6HR MIN TEMP:  50; 6HR MAX TEMP:  70;                                

BEVERLY        PTSUNNY   66  44  45 W14G21    29.75S                  
LAWRENCE       MOSUNNY   68  41  37 NW8G21    29.77S                  
BEDFORD        PTSUNNY   67  42  40 NW14G22   29.75S                  
NORWOOD        PTSUNNY   73  42  32 NW14G26   29.76R                  
MARSHFIELD     MOSUNNY   61  46  59 E7        29.76F                  
PLYMOUTH       MOSUNNY   73  46  38 SW14G21   29.75F                  
TAUNTON        SUNNY     74  48  39 SW10G20   29.76F                  
NEW BEDFORD    SUNNY     68  49  50 SW10      29.76F                  
$$

MAZALL-151900-
CAPE COD AND THE ISLANDS
  
CITY           SKY/WX    TMP DP  RH WIND       PRES   REMARKS
FALMOUTH       SUNNY     66  46  48 W7G20     29.79S                  
HYANNIS        SUNNY     62  46  55 S13       29.78S                  
CHATHAM        SUNNY     63  48  58 SW9       29.80S                  
PROVINCETOWN   SUNNY     67  50  54 S6        29.78F                  
NANTUCKET      MOSUNNY   55  48  77 SW9       29.81F                  
MARTHAS VNYRD  SUNNY     66  48  52 SW13      29.79S                  
$$
 
MAZALL-151900-
CENTRAL AND WESTERN MASSACHUSETTS
  
CITY           SKY/WX    TMP DP  RH WIND       PRES   REMARKS
WORCESTER      PTSUNNY   66  40  38 NW16G30   29.78S                  
6HR MIN TEMP:  52; 6HR MAX TEMP:  68;                                

FITCHBURG      MOSUNNY   69  41  36 W20G28    29.78S                  
ORANGE         PTSUNNY   65  41  41 NW16G28   29.80S                  
SPRINGFIELD    PTSUNNY   72  38  29 NW15      29.75S                  
WESTFIELD      MOSUNNY   70  39  32 W18G29    29.79R                  
NORTH ADAMS    MOSUNNY   62  40  44 W23G35    29.84S                  
PITTSFIELD     CLOUDY    57  41  55 W12       29.84R                  
$$
 
RIZALL-151900-
RHODE ISLAND
  
CITY           SKY/WX    TMP DP  RH WIND       PRES   REMARKS
PROVIDENCE     MOSUNNY   72  43  35 NW18G31   29.77S                  
6HR MIN TEMP:  51; 6HR MAX TEMP:  75;                                

NEWPORT        SUNNY     59  48  67 S13       29.79R                  
BLOCK ISLAND   SUNNY     61  49  64 SW12      29.81F                  
SMITHFIELD     PTSUNNY   73  40  30 W17G24    29.78R                  
WESTERLY       SUNNY     63  50  62 S9        29.80R                  
$$
 
CTZALL-151900-
CONNECTICUT
  
CITY           SKY/WX    TMP DP  RH WIND       PRES   REMARKS
BRADLEY INTL   PTSUNNY   72  40  31 W13G29    29.79R                  
6HR MIN TEMP:  52; 6HR MAX TEMP:  77;                                

HARTFORD       PTSUNNY   73  40  30 W12G22    29.78S                  
PLAINVILLE     MOCLDY    73  38  27 W12G17    29.78S                  
BRIDGEPORT     MOSUNNY   72  44  36 SW14      29.79S                  
DANBURY        MOSUNNY   75  38  26 W15G25    29.81S                  
GROTON         SUNNY     60  52  74 S8        29.79S                  
NEW HAVEN      MOSUNNY   70  52  52 S8        29.79F                  
CHESTER        SUNNY     75  45  33 VRB7G18   29.79S                  
MERIDEN        MOSUNNY   75  36  24 NW13G28   29.78F                  
WILLIMANTIC    MOSUNNY   72  38  29 W22G33    29.79F                  
OXFORD         PTSUNNY   70  38  31 W13G20    29.82S                  
$$

MEZ002-015-021-024-NHZ003-005-008-011-012-014-VTZ005-008-151900-
NORTHERN NEW ENGLAND
  
CITY           SKY/WX    TMP DP  RH WIND       PRES   REMARKS
PORTLAND ME    PTSUNNY   57  45  64 S12       29.76S                  
6HR MIN TEMP:  46; 6HR MAX TEMP:  62;                                

BANGOR ME      MOSUNNY   61  41  47 W9        29.73F                  
CONCORD NH     CLOUDY    63  39  41 NW12G23   29.75F                  
MANCHESTER NH  PTSUNNY   70  37  29 W17G25    29.74F                  
NASHUA NH      PTSUNNY   69  41  36 W10G22    29.76F                  
PORTSMOUTH NH  PTSUNNY   67  40  37 W8        29.74S                  
JAFFREY NH     MOSUNNY   64  38  38 W13G29    29.79S                  
KEENE NH       MOSUNNY   62  38  40 W15G28    29.80R                  
BURLINGTON VT  PTSUNNY   52  42  69 VRB3      29.85R                  
MT. WASHINGTON NOT AVBL                                               
$$

NYZ052-076-151900-
EASTERN NEW YORK
  
CITY           SKY/WX    TMP DP  RH WIND       PRES   REMARKS
ALBANY         PTSUNNY   63  39  41 W16G25    29.87S                  
6HR MIN TEMP:  45; 6HR MAX TEMP:  64;                                

NEW YORK CITY  MOSUNNY   79  37  22 W16G24    29.79F                  
6HR MIN TEMP:  62; 6HR MAX TEMP:  79;                                

$$
 
ANZALL-151900-
MARINE OBSERVATIONS
  
STATION/POSITION TIME  TEMP    WIND        PRES    VSBY  WAVE
                       AIR SEA DIR/SP/G                  HT/PER
                 (UTC) (F)     (DEG/KT/KT) (MB)    (MI)  (FT/S)
BOSTON BUOY      1750   50     120/  6/ 10 1008.0          3/11
BUZZARDS BAY     1700   44     340/ 15/ 16 1014.9F
NANTUCKET SOUND  1750   50 47  180/  8/  8 1008.6F         1/ 3
MASS BAY-STELLWA 1604   70 70  200/ 14/ 16 1019.5
ISLE OF SHOALS   1700   45     290/  9/ 10 1014.9
S OF BLOCK IS    1756      45                N/A           6/ 8
$$

......................KEY.........................
  SKY/WX - SKY CONDITION/PRESENT WEATHER
  TMP    - TEMPERATURE IN FAHRENHEIT
  DWPT   - DEWPOINT IN FAHRENHEIT
  RH     - RELATIVE HUMIDITY IN PERCENT
  WIND   - DIRECTION AND SPEED IN MPH
  PRES   - MEAN SEA LEVEL PRESSURE IN INCHES OF HG
  WCI    - WIND CHILL INDEX
  VSB    - VISIBILITY IN MILES
  HX     - HEAT INDEX
  TC     - TEMPERATURE IN CELSIUS
  VRB    - VARIABLE WIND DIRECTION
  N/A    - NOT AVAILABLE
  
      

Other recent Regional Weather Roundups

Mon Apr 22, 9:10am EDT

Mon Apr 22, 8:10am EDT

Mon Apr 22, 7:10am EDT

Mon Apr 22, 6:10am EDT

Mon Apr 22, 5:10am EDT

Mon Apr 22, 4:10am EDT

Mon Apr 22, 3:10am EDT

Mon Apr 22, 2:10am EDT

Mon Apr 22, 1:10am EDT

Mon Apr 22, 12:10am EDT

Sun Apr 21, 11:10pm EDT

Sun Apr 21, 10:10pm EDT

Sun Apr 21, 9:10pm EDT

Sun Apr 21, 8:10pm EDT

Sun Apr 21, 7:10pm EDT

Sun Apr 21, 6:10pm EDT

Sun Apr 21, 5:10pm EDT

Sun Apr 21, 4:10pm EDT

Sun Apr 21, 3:10pm EDT

Sun Apr 21, 2:10pm EDT

Sun Apr 21, 1:10pm EDT

Sun Apr 21, 12:10pm EDT

Sun Apr 21, 11:10am EDT

Sun Apr 21, 10:10am EDT

Sun Apr 21, 9:10am EDT

Sun Apr 21, 8:10am EDT

Sun Apr 21, 7:10am EDT

Sun Apr 21, 6:10am EDT

Sun Apr 21, 5:10am EDT

Sun Apr 21, 4:10am EDT

Sun Apr 21, 3:10am EDT

Sun Apr 21, 2:10am EDT

Sun Apr 21, 1:10am EDT

Sun Apr 21, 12:10am EDT

Sat Apr 20, 11:10pm EDT

Sat Apr 20, 10:10pm EDT

Sat Apr 20, 9:10pm EDT

Sat Apr 20, 8:10pm EDT

Sat Apr 20, 7:10pm EDT

Sat Apr 20, 6:10pm EDT

Sat Apr 20, 5:10pm EDT

Sat Apr 20, 4:10pm EDT

Sat Apr 20, 3:10pm EDT

Sat Apr 20, 2:10pm EDT

Sat Apr 20, 1:10pm EDT

Sat Apr 20, 12:10pm EDT

Sat Apr 20, 11:10am EDT

Sat Apr 20, 10:10am EDT

Sat Apr 20, 9:10am EDT

Sat Apr 20, 8:10am EDT

Sat Apr 20, 7:10am EDT

Sat Apr 20, 6:10am EDT

Sat Apr 20, 5:10am EDT

Sat Apr 20, 4:10am EDT

Sat Apr 20, 3:10am EDT

Sat Apr 20, 2:10am EDT

Sat Apr 20, 1:10am EDT

Sat Apr 20, 12:10am EDT

Fri Apr 19, 11:10pm EDT

Fri Apr 19, 10:10pm EDT

Fri Apr 19, 9:10pm EDT

Fri Apr 19, 8:10pm EDT

Fri Apr 19, 7:10pm EDT

Fri Apr 19, 6:10pm EDT

Fri Apr 19, 5:10pm EDT

Fri Apr 19, 4:10pm EDT

Fri Apr 19, 3:10pm EDT

Fri Apr 19, 2:10pm EDT

Fri Apr 19, 1:10pm EDT

Fri Apr 19, 12:10pm EDT

Fri Apr 19, 11:10am EDT

Fri Apr 19, 10:10am EDT

Fri Apr 19, 9:10am EDT

Fri Apr 19, 8:10am EDT

Fri Apr 19, 7:10am EDT

Fri Apr 19, 6:10am EDT

Fri Apr 19, 5:10am EDT

Fri Apr 19, 4:10am EDT

Fri Apr 19, 3:10am EDT

Fri Apr 19, 2:10am EDT

Fri Apr 19, 1:10am EDT

Fri Apr 19, 12:10am EDT

Thu Apr 18, 11:10pm EDT

Thu Apr 18, 10:10pm EDT

Thu Apr 18, 9:10pm EDT

Thu Apr 18, 8:10pm EDT

Thu Apr 18, 7:10pm EDT

Thu Apr 18, 6:10pm EDT

Thu Apr 18, 5:10pm EDT

Thu Apr 18, 4:10pm EDT

Thu Apr 18, 3:10pm EDT

Thu Apr 18, 2:10pm EDT

Thu Apr 18, 1:10pm EDT

Thu Apr 18, 12:10pm EDT

Thu Apr 18, 11:10am EDT

Thu Apr 18, 10:10am EDT

Thu Apr 18, 9:10am EDT

Thu Apr 18, 8:10am EDT

Thu Apr 18, 7:10am EDT

Thu Apr 18, 6:10am EDT

Thu Apr 18, 5:10am EDT

Thu Apr 18, 4:10am EDT

Thu Apr 18, 3:10am EDT

Thu Apr 18, 2:10am EDT

Thu Apr 18, 1:10am EDT

Thu Apr 18, 12:10am EDT

Wed Apr 17, 11:10pm EDT

Wed Apr 17, 10:10pm EDT

Wed Apr 17, 9:10pm EDT

Wed Apr 17, 8:10pm EDT

Wed Apr 17, 7:10pm EDT

Wed Apr 17, 6:10pm EDT

Wed Apr 17, 5:10pm EDT

Wed Apr 17, 4:10pm EDT

Wed Apr 17, 3:10pm EDT

Wed Apr 17, 2:10pm EDT

Wed Apr 17, 1:10pm EDT

Wed Apr 17, 12:10pm EDT

Wed Apr 17, 11:10am EDT

Wed Apr 17, 10:10am EDT

Wed Apr 17, 9:10am EDT

Wed Apr 17, 8:10am EDT

Wed Apr 17, 7:10am EDT

Wed Apr 17, 6:10am EDT

Wed Apr 17, 5:10am EDT

Wed Apr 17, 4:10am EDT

Wed Apr 17, 3:10am EDT

Wed Apr 17, 2:10am EDT

Wed Apr 17, 1:10am EDT

Wed Apr 17, 12:10am EDT

Tue Apr 16, 11:10pm EDT

Tue Apr 16, 10:10pm EDT

Tue Apr 16, 9:10pm EDT

Tue Apr 16, 8:10pm EDT

Tue Apr 16, 7:10pm EDT

Tue Apr 16, 6:10pm EDT

Tue Apr 16, 5:10pm EDT

Tue Apr 16, 4:10pm EDT

Tue Apr 16, 3:10pm EDT

Tue Apr 16, 2:10pm EDT

Tue Apr 16, 1:10pm EDT

Tue Apr 16, 12:10pm EDT

Tue Apr 16, 11:10am EDT

Tue Apr 16, 10:10am EDT

Tue Apr 16, 9:10am EDT

Tue Apr 16, 8:10am EDT

Tue Apr 16, 7:10am EDT

Tue Apr 16, 6:10am EDT

Tue Apr 16, 5:10am EDT

Tue Apr 16, 4:10am EDT

Tue Apr 16, 3:10am EDT

Tue Apr 16, 2:10am EDT

Tue Apr 16, 1:10am EDT

Tue Apr 16, 12:10am EDT

Mon Apr 15, 11:10pm EDT

Mon Apr 15, 10:10pm EDT

Mon Apr 15, 9:10pm EDT

Mon Apr 15, 8:10pm EDT

Mon Apr 15, 7:10pm EDT

Mon Apr 15, 6:10pm EDT

Mon Apr 15, 5:10pm EDT

Mon Apr 15, 4:10pm EDT

Mon Apr 15, 3:10pm EDT

Mon Apr 15, 1:10pm EDT

Mon Apr 15, 12:10pm EDT

Mon Apr 15, 11:10am EDT

Mon Apr 15, 10:10am EDT